Bilbao, Spain

8:54 AM CEST on August 21, 2017 (GMT +0200)
Bilbao

Weather History for LEBB - September, 2013

Change the Weather History Date:

Monday, September 16, 2013

  Actual Average Record
Temperature  
Mean Temperature 60 °F -  
Max Temperature 68 °F 72 °F 96 °F (2003)
Min Temperature 51 °F 55 °F 51 °F (1996)
Degree Days  
Heating Degree Days 6    
Growing Degree Days 10 (Base 50)    
Moisture  
Dew Point 57 °F    
Average Humidity 88    
Maximum Humidity 94    
Minimum Humidity 64    
Precipitation  
Precipitation 0.00 in - - ()
Sea Level Pressure  
Sea Level Pressure 30.03 in    
Wind  
Wind Speed 4 mph ()    
Max Wind Speed 13 mph    
Max Gust Speed -    
Visibility 3.4 miles    
Events Rain    
Averages and records for this station are not official NWS values.
T = Trace of Precipitation, MM = Missing Value Source: Averaged Metar Reports

Daily Weather History Graph

Daily Weather History Graph

Search for Another Location

Airport or City:

Trip Planner

Search our weather history database for the weather conditions in past years. The results will help you decide how hot, cold, wet, or windy it might be!

Date:

Astronomy

Sep. 16, 2013 Rise Set
Actual Time 7:52 AM CEST 8:19 PM CEST
Civil Twilight 7:23 AM CEST 8:48 PM CEST
Nautical Twilight 6:49 AM CEST 9:22 PM CEST
Astronomical Twilight 6:15 AM CEST 9:56 PM CEST
Moon 6:22 PM CEST (9/16) 4:17 AM CEST (9/16)
Length of Visible Light 13h 24m
Length of Day
12h 27m
Waxing Gibbous, 88% of the Moon is Illuminated
Sep 16
Waxing Gibbous
Sep 19
Full
Sep 27
Last Quarter
Oct 5
New
Oct 12
First Quarter

Hourly Weather History & Observations

Time (CEST) Temp. Dew Point Humidity Pressure Visibility Wind Dir Wind Speed Gust Speed Precip Events Conditions
12:00 AM 55.4 °F 51.8 °F 88% 30.09 in - Variable 2.3 mph - N/A   Clear
5:00 AM 51.8 °F 50.0 °F 94% 30.04 in - Variable 2.3 mph - N/A   Clear
5:30 AM 51.8 °F 50.0 °F 94% 30.04 in - Variable 2.3 mph - N/A   Clear
6:00 AM 51.8 °F 50.0 °F 94% 30.01 in - Variable 1.2 mph - N/A   Clear
6:30 AM 51.8 °F 50.0 °F 94% 30.01 in - ESE 3.5 mph - N/A   Clear
7:00 AM 51.8 °F 50.0 °F 94% 30.01 in - ESE 3.5 mph - N/A   Clear
7:30 AM 51.8 °F 50.0 °F 94% 30.01 in - East 3.5 mph - N/A   Clear
8:00 AM 51.8 °F 50.0 °F 94% 30.01 in - Variable 2.3 mph - N/A   Clear
8:30 AM 51.8 °F 50.0 °F 94% 30.01 in - East 4.6 mph - N/A   Clear
9:00 AM 53.6 °F 50.0 °F 88% 30.01 in - Variable 1.2 mph - N/A   Clear
9:30 AM 55.4 °F 51.8 °F 88% 30.01 in - Variable 2.3 mph - N/A   Clear
10:00 AM 57.2 °F 51.8 °F 82% 30.01 in - Variable 2.3 mph - N/A   Clear
10:30 AM 59.0 °F 53.6 °F 82% 30.01 in - Variable 2.3 mph - N/A   Clear
11:00 AM 60.8 °F 55.4 °F 82% 30.01 in - Variable 2.3 mph - N/A   Clear
11:30 AM 62.6 °F 55.4 °F 77% 30.01 in 6.2 mi Variable 1.2 mph - N/A   Scattered Clouds
12:00 PM 66.2 °F 55.4 °F 68% 30.01 in 6.2 mi Variable 1.2 mph - N/A   Scattered Clouds
12:30 PM 68.0 °F 57.2 °F 68% 30.01 in 6.2 mi Variable 1.2 mph - N/A   Scattered Clouds
1:00 PM 68.0 °F 55.4 °F 64% 30.01 in 6.2 mi Calm Calm - N/A   Scattered Clouds
1:30 PM 68.0 °F 55.4 °F 64% 30.01 in 5.0 mi Variable 1.2 mph - N/A   Scattered Clouds
2:00 PM 66.2 °F 59.0 °F 78% 30.01 in 3.7 mi West 5.8 mph - N/A   Mostly Cloudy
2:08 PM 66.2 °F 60.8 °F 83% 30.01 in 1.6 mi West 3.5 mph - N/A Rain Light Rain
2:30 PM 64.4 °F 60.8 °F 88% 30.01 in 3.1 mi Variable 1.2 mph - N/A Rain Light Rain
3:00 PM 64.4 °F 60.8 °F 88% 30.01 in 3.1 mi Calm Calm - N/A Rain Light Rain
3:30 PM 64.4 °F 60.8 °F 88% 30.01 in 3.1 mi Calm Calm - N/A   Mostly Cloudy
4:00 PM 64.4 °F 62.6 °F 94% 30.01 in 2.8 mi Variable 5.8 mph - N/A Rain Light Rain
4:30 PM 64.4 °F 62.6 °F 94% 30.01 in 1.6 mi NNW 8.1 mph - N/A Rain Light Rain
5:00 PM 64.4 °F 62.6 °F 94% 30.01 in 1.6 mi NNW 8.1 mph - N/A Rain Light Rain
5:30 PM 64.4 °F 62.6 °F 94% 30.01 in 1.6 mi NW 4.6 mph - N/A Rain Light Rain
5:47 PM 62.6 °F 60.8 °F 94% 30.01 in 0.9 mi NW 5.8 mph - N/A Rain Rain
6:00 PM 62.6 °F 60.8 °F 94% 30.01 in 1.2 mi NW 11.5 mph - N/A Rain Rain
6:14 PM 62.6 °F 60.8 °F 94% 30.01 in 3.1 mi WNW 9.2 mph - N/A Rain Light Rain
6:30 PM 62.6 °F 60.8 °F 94% 30.01 in 1.2 mi NW 12.7 mph - N/A Rain Light Rain
7:00 PM 62.6 °F 60.8 °F 94% 30.04 in 1.6 mi NW 10.4 mph - N/A Rain Light Rain
7:17 PM 62.6 °F 60.8 °F 94% 30.04 in 1.2 mi NNW 9.2 mph - N/A Rain Light Rain
7:30 PM 60.8 °F 59.0 °F 94% 30.04 in 1.6 mi NW 10.4 mph - N/A Rain Light Rain
7:46 PM 60.8 °F 59.0 °F 94% 30.04 in 3.1 mi NNW 12.7 mph - N/A Rain Light Rain
8:00 PM 60.8 °F 59.0 °F 94% 30.04 in 3.1 mi NNW 9.2 mph - N/A Rain Light Rain
8:13 PM 60.8 °F 57.2 °F 88% 30.04 in 5.0 mi NW 4.6 mph - N/A   Mostly Cloudy
8:30 PM 60.8 °F 57.2 °F 88% 30.06 in 6.2 mi NW 8.1 mph - N/A   Mostly Cloudy
9:00 PM 60.8 °F 57.2 °F 88% 30.06 in 3.7 mi NW 10.4 mph - N/A Rain Light Rain
9:30 PM 60.8 °F 57.2 °F 88% 30.06 in 6.2 mi WNW 5.8 mph - N/A   Mostly Cloudy
10:00 PM 60.8 °F 57.2 °F 88% 30.06 in 3.7 mi WNW 4.6 mph - N/A Rain Light Rain
10:30 PM 60.8 °F 57.2 °F 88% 30.06 in 6.2 mi West 4.6 mph - N/A Rain Light Rain
11:00 PM 60.8 °F 57.2 °F 88% 30.09 in 3.1 mi Variable 1.2 mph - N/A Rain Light Rain
11:30 PM 59.0 °F 57.2 °F 94% 30.09 in 1.9 mi Variable 1.2 mph - N/A Rain Light Rain